www.pogodaiklimat.ru

Погода и климат >> Архив погоды >> Финляндия >> Пиккио Йолтoнен


ПОГОДА в Пиккио Йолтoнен

  • Прогноз погоды в Пиккио Йолтoнен
  • Монитор погоды в Пиккио Йолтoнен

АРХИВ ПОГОДЫ в Пиккио Йолтoнен

Время (UTC), дата Ветер
(напр.,м/с)
 
Видим.   Явления Облачность Т
(С)
Тd
(С)
f
(%)
Тe
(С)
Тes
(С)
Комфортность P
(гПа)
Po
(гПа)
Тmin
(С)
Tmax
(С)
R
(мм)
R24
(мм)
S
(см)
16 11.09 н/о н/о +16.1 +16.1 100 1010.5 1009.7
17 11.09 н/о н/о +16.0 +16.0 100 1010.9 1010.1
18 11.09 н/о н/о +16.2 +16.2 100 1011.2 1010.5 +14.5 +16.4 9
19 11.09 н/о н/о +16.1 +15.0 93 1011.6 1010.9
20 11.09 н/о н/о +16.0 +15.3 96 1012.1 1011.3
21 11.09 н/о н/о +15.4 +15.4 100 1012.5 1011.8
22 11.09 н/о н/о +15.0 +15.0 100 1012.5 1011.8
23 11.09 н/о н/о +15.6 +15.6 100 1012.3 1011.5
00 12.09 н/о н/о +16.0 +16.0 100 1012.0 1011.3
01 12.09 н/о н/о +16.1 +16.1 100 1011.7 1010.9
02 12.09 н/о н/о +15.7 +15.7 100 1011.1 1010.4 0.4
03 12.09 н/о н/о +15.4 +15.3 99 1010.5 1009.7
04 12.09 н/о н/о +15.6 +15.6 100 1009.7 1008.9
05 12.09 н/о н/о +15.2 +15.2 100 1009.6 1008.8 0.1
06 12.09 н/о н/о +14.4 +14.4 100 1009.3 1008.6 +14.3 +16.4 3
07 12.09 н/о н/о +15.1 +15.1 100 1009.0 1008.2
08 12.09 н/о н/о +15.4 +15.4 100 1009.2 1008.5
09 12.09 н/о н/о +15.9 +14.5 91 1009.5 1008.8
10 12.09 н/о н/о +16.5 +13.8 84 1009.6 1008.9
11 12.09 н/о н/о +15.7 +13.4 86 1010.3 1009.5
12 12.09 н/о н/о +16.8 +12.5 76 1010.7 1009.9
13 12.09 н/о н/о +16.4 +11.9 75 1010.8 1010.1
14 12.09 н/о н/о +16.6 +11.5 72 1011.0 1010.2
15 12.09 н/о н/о +17.1 +12.0 72 1011.3 1010.6
16 12.09 н/о н/о +15.8 +12.5 81 1011.6 1010.8
17 12.09 н/о н/о +14.7 +13.8 94 1011.8 1011.0
18 12.09 н/о н/о +13.6 +13.6 100 1011.9 1011.1 +13.4 +17.2
19 12.09 н/о н/о +13.3 +13.3 100 1011.7 1011.0
20 12.09 н/о н/о +12.5 +12.4 99 1011.5 1010.7
21 12.09 н/о н/о +13.6 +12.8 95 1011.1 1010.3
22 12.09 н/о н/о +14.2 +12.9 92 1010.9 1010.1
23 12.09 н/о н/о +14.2 +12.1 87 1010.5 1009.7
00 13.09 н/о н/о +14.4 +11.9 85 1010.1 1009.3
01 13.09 н/о н/о +14.4 +12.6 89 1009.9 1009.2
02 13.09 н/о н/о +14.3 +12.8 91 1009.5 1008.7
03 13.09 н/о н/о +13.7 +13.7 100 1009.1 1008.3 0.4
04 13.09 н/о н/о +12.5 +12.5 100 1008.8 1008.0
05 13.09 н/о н/о +12.4 +12.4 100 1008.6 1007.8
06 13.09 н/о н/о +14.0 +14.0 100 1008.7 1007.9 +12.3 +14.7 0.8
07 13.09 н/о н/о +13.2 +13.2 100 1008.5 1007.8 0.2
08 13.09 н/о н/о +11.8 +11.8 100 1008.9 1008.1
09 13.09 н/о н/о +11.8 +11.8 100 1008.9 1008.1 2
10 13.09 н/о н/о +11.9 +11.9 100 1009.2 1008.5
11 13.09 н/о н/о +13.2 +13.2 100 1009.1 1008.3
12 13.09 н/о н/о +14.4 +11.0 80 1009.6 1008.9
13 13.09 н/о н/о +13.7 +10.7 82 1009.9 1009.2
14 13.09 н/о н/о +13.6 +10.4 81 1010.4 1009.6
15 13.09 н/о н/о +13.5 +7.1 65 1011.0 1010.2
16 13.09 н/о н/о +13.0 +6.7 66 1011.5 1010.7
17 13.09 н/о н/о +11.2 +8.4 83 1012.0 1011.3
18 13.09 н/о н/о +9.8 +9.8 100 1012.4 1011.7 +9.8 +14.6 12
19 13.09 н/о н/о +10.1 +9.1 94 1012.7 1011.9
20 13.09 н/о н/о +12.2 +5.8 65 1012.9 1012.1
21 13.09 н/о н/о +11.3 +6.0 70 1013.3 1012.5
22 13.09 н/о н/о +9.7 +7.8 88 1013.6 1012.8
23 13.09 н/о н/о +8.9 +8.8 99 1014.0 1013.2
00 14.09 н/о н/о +9.2 +8.0 92 1014.4 1013.6
01 14.09 н/о н/о +8.1 +8.1 100 1014.5 1013.8
02 14.09 н/о н/о +7.9 +7.9 100 1014.9 1014.1
03 14.09 н/о н/о +7.1 +7.1 100 1015.1 1014.3
04 14.09 н/о н/о +7.2 +7.2 100 1015.3 1014.5
05 14.09 н/о н/о +9.1 +8.7 97 1015.6 1014.8
06 14.09 н/о н/о +11.9 +7.1 72 1015.7 1014.9 +7.1 +12.2
07 14.09 н/о н/о +13.1 +6.7 65 1015.8 1015.1
08 14.09 н/о н/о +13.4 +4.7 56 1016.1 1015.3
09 14.09 н/о н/о +13.7 +5.3 57 1016.6 1015.8
10 14.09 н/о н/о +14.3 +6.1 58 1016.3 1015.5
11 14.09 н/о н/о +13.1 +5.3 59 1016.2 1015.5
12 14.09 н/о н/о +13.3 +3.5 51 1016.7 1015.9
13 14.09 н/о н/о +13.6 +3.9 52 1016.9 1016.1
14 14.09 н/о н/о +12.9 +4.1 55 1016.7 1016.0
15 14.09 н/о н/о +12.8 +3.5 53 1016.8 1016.1
16 14.09 н/о н/о +12.0 +4.2 59 1016.7 1015.9
17 14.09 н/о н/о +9.2 +6.1 81 1016.5 1015.7
18 14.09 н/о н/о +8.7 +7.8 94 1016.3 1015.6 +8.5 +14.8
19 14.09 н/о н/о +6.4 +6.4 100 1015.9 1015.1
20 14.09 н/о н/о +8.9 +8.9 100 1015.1 1014.4 0.3
21 14.09 н/о н/о +6.1 +6.1 100 1014.3 1013.5
22 14.09 н/о н/о +6.2 +6.2 100 1013.4 1012.6
23 14.09 н/о н/о +6.4 +6.3 99 1011.9 1011.1
00 15.09 н/о н/о +7.5 +7.4 99 1010.2 1009.4
01 15.09 н/о н/о +10.2 +10.2 100 1008.9 1008.1
02 15.09 н/о н/о +10.2 +10.2 100 1006.8 1006.0
03 15.09 н/о н/о +10.7 +10.7 100 1004.1 1003.4 2
04 15.09 н/о н/о +11.2 +11.2 100 1001.8 1001.0 2
05 15.09 н/о н/о +11.0 +11.0 100 999.7 999.0 3
06 15.09 н/о н/о +11.6 +11.6 100 997.1 996.3 +5.1 +11.6 11
07 15.09 н/о н/о +11.6 +11.6 100 995.7 995.0
08 15.09 н/о н/о +11.6 +11.6 100 994.1 993.4
09 15.09 н/о н/о +11.9 +11.9 100 992.2 991.4 0.7
10 15.09 н/о н/о +12.1 +12.1 100 990.8 990.1
11 15.09 н/о н/о +12.4 +12.4 100 990.1 989.3
12 15.09 н/о н/о +12.2 +12.2 100 989.9 989.2 0.6
13 15.09 н/о н/о +13.0 +13.0 100 989.9 989.2 1
14 15.09 н/о н/о +12.8 +11.3 91 989.8 989.1
15 15.09 н/о н/о +13.1 +9.5 79 990.0 989.3
16 15.09 н/о н/о +12.1 +10.2 88 990.5 989.8
17 15.09 н/о н/о +10.7 +9.6 93 990.8 990.0
18 15.09 н/о н/о +8.4 +8.4 100 990.7 990.0 +8.4 +13.7 7
19 15.09 н/о н/о +9.4 +9.4 100 990.8 990.1
20 15.09 н/о н/о +7.9 +7.9 100 990.7 989.9
21 15.09 н/о н/о +10.4 +8.4 87 990.5 989.7
22 15.09 н/о н/о +10.6 +7.5 81 990.2 989.4
23 15.09 н/о н/о +9.8 +9.8 100 990.5 989.8
00 16.09 н/о н/о +9.1 +9.1 100 990.2 989.4 0.4
01 16.09 н/о н/о +9.3 +9.2 99 989.9 989.2
02 16.09 н/о н/о +8.3 +8.3 100 989.7 989.0
03 16.09 н/о н/о +8.0 +8.0 100 990.0 989.2
04 16.09 н/о н/о +7.5 +7.5 100 990.1 989.3
05 16.09 н/о н/о +8.6 +8.6 100 990.5 989.8
06 16.09 н/о н/о +9.9 +9.9 100 991.0 990.2 +7.3 +10.9 2
07 16.09 н/о н/о +11.3 +10.0 92 991.4 990.6
08 16.09 н/о н/о +12.7 +8.4 75 991.7 991.0
09 16.09 н/о н/о +12.6 +7.9 73 992.3 991.5
10 16.09 н/о н/о +13.1 +6.7 65 992.7 991.9
11 16.09 н/о н/о +12.0 +9.0 82 993.6 992.8
12 16.09 н/о н/о +12.6 +7.1 69 994.0 993.2
13 16.09 н/о н/о +12.2 +7.6 73 994.6 993.8
14 16.09 н/о н/о +11.8 +6.0 68 995.4 994.7
15 16.09 н/о н/о +10.3 +9.3 94 996.2 995.5
16 16.09 н/о н/о +9.3 +9.3 100 996.8 996.0
17 16.09 н/о н/о +9.4 +9.2 99 997.5 996.7
18 16.09 н/о н/о +8.1 +8.1 100 998.0 997.2 +7.8 +14.2 0.4
19 16.09 н/о н/о +6.9 +6.9 100 998.2 997.4
20 16.09 н/о н/о +5.7 +5.7 100 998.5 997.7
21 16.09 н/о н/о +4.4 +4.4 100 998.6 997.8
22 16.09 н/о н/о +4.5 +4.5 100 998.6 997.8
23 16.09 н/о н/о +5.1 +5.1 100 998.6 997.8
00 17.09 н/о н/о +2.3 +2.2 99 998.6 997.8
01 17.09 н/о н/о +1.5 +1.5 100 998.5 997.7
02 17.09 н/о н/о +1.4 +1.3 99 998.3 997.5
03 17.09 н/о н/о +0.8 +0.7 99 998.1 997.3
04 17.09 н/о н/о +0.1 +0.1 100 998.0 997.2
05 17.09 н/о н/о +1.0 +1.0 100 998.0 997.2
06 17.09 н/о н/о +5.6 +5.6 100 997.9 997.1 +0.1 +8.1
07 17.09 н/о н/о +7.6 +7.6 100 997.7 996.9
08 17.09 н/о н/о +8.6 +8.6 100 997.9 997.1
09 17.09 н/о н/о +10.9 +3.8 62 997.9 997.2
10 17.09 н/о н/о +11.6 +4.1 60 997.8 997.1
11 17.09 н/о н/о +12.0 +3.7 57 997.8 997.0
12 17.09 н/о н/о +11.6 +3.3 57 997.8 997.1
13 17.09 н/о н/о +11.8 +3.8 58 997.8 997.0
14 17.09 н/о н/о +11.5 +4.6 63 997.9 997.2
15 17.09 н/о н/о +10.0 +7.4 84 998.0 997.3
16 17.09 н/о н/о +9.7 +6.6 81 998.1 997.3
17 17.09 н/о н/о +7.9 +7.4 97 998.3 997.6
18 17.09 н/о н/о +7.6 +6.0 90 998.8 998.0 +5.6 +12.6
19 17.09 н/о н/о +6.3 +6.3 100 998.9 998.2
20 17.09 н/о н/о +4.1 +4.1 100 999.2 998.4
21 17.09 н/о н/о +3.4 +3.4 100 999.5 998.7
22 17.09 н/о н/о +3.0 +3.0 100 999.7 999.0
23 17.09 н/о н/о +3.5 +3.5 100 999.9 999.2
00 18.09 н/о н/о +5.0 +5.0 100 1000.3 999.5
01 18.09 н/о н/о +5.8 +5.8 100 1000.6 999.8
02 18.09 н/о н/о +5.7 +5.7 100 1001.1 1000.3
03 18.09 н/о н/о +6.3 +6.3 100 1001.8 1001.0
04 18.09 н/о н/о +6.4 +6.3 99 1002.2 1001.4
05 18.09 н/о н/о +6.7 +6.7 100 1003.0 1002.3
06 18.09 н/о н/о +7.6 +7.5 99 1003.8 1003.1 +2.6 +7.6
07 18.09 н/о н/о +8.8 +8.3 97 1004.5 1003.7
08 18.09 н/о н/о +10.4 +5.5 72 1005.0 1004.2
09 18.09 н/о н/о +11.1 +4.3 63 1005.8 1005.0
10 18.09 н/о н/о +11.3 +2.5 55 1006.3 1005.5
11 18.09 н/о н/о +12.9 +3.2 52 1006.7 1005.9
12 18.09 н/о н/о +12.6 +2.1 49 1007.2 1006.5
13 18.09 н/о н/о +12.8 +2.6 50 1007.5 1006.8
14 18.09 н/о н/о +11.9 +3.0 54 1008.1 1007.3
15 18.09 н/о н/о +11.9 +2.6 53 1008.7 1007.9
16 18.09 н/о н/о +10.7 +2.5 57 1009.2 1008.4

 

Местоположение метеостанции Пиккио Йолтoнен (Финляндия): широта 60.39 долгота 22.55 высота над уровнем моря 6 м.

В архиве по умолчанию представлена погода в Пиккио Йолтoнен за последнюю неделю. Архивные данные за месяц целиком и за предыдущие месяцы, начиная с января 2011 года, Вы можете получить, выбрав интересующий диапазон дат из раскрывающегося списка и нажав кнопку "Ввод!".


*Определитесь, кто Вы:
робот инопланетянин человек

Внимание! Время в таблицах - всемирное. Для получения местного времени необходимо прибавить поправку, которая равна 1 ч.

Смотрите также архив погоды в соседних городах и на ближайших метеорологических станциях:

Погода в Турку (Финляндия) (21 км)
Погода на Острове Раякари (Финляндия) (25 км)
Погода в Кимиёнсаари (Финляндия) (27 км)
Погода в Сало (Финляндия) (31 км)
Погода на Острове Фагерхольм (Финляндия) (56 км)
Погода в Аэропорту Сало Киикала (Финляндия) (61 км)
Погода на Вано (Финляндия) (61 км)
Погода в Ханко (Финляндия) (68 км)
Погода в Йокиойнене (Финляндия) (70 км)
Погода в Твярминне (Финляндия) (72 км)

Пояснения к столбцам:

Ветер - указаны скорость ветра в м/с - средняя за 10 мин, порывы в срок и между сроками (в фигурных скобках) и направление, откуда дует ветер: С - северный, СВ - северо-восточный, В - восточный, ЮВ - юго-восточный, Ю - южный, ЮЗ - юго-западный, З - западный, СЗ - северо-западный.
Видимость - горизонтальная дальность видимости в метрах или километрах. При видимости от 1 до 10 км при отсутствии осадков обычно наблюдается дымка, при ухудшении видимости до 1 км и менее - туман. В сухую погоду видимость может ухудшаться дымом, пылью или мглою.
Явления - указаны атмосферные явления, наблюдавшиеся в срок или в последний час перед сроком; фигурными скобками обозначены явления, наблюдавшиеся между сроками (за 1-3 часа до срока); квадратными скобками обозначены град или гололедные отложения с указанием их диаметра в мм.
Облачность - указаны через наклонную черту общая и нижняя облачность в баллах и высота нижней границы облаков в метрах; квадратными скобками обозначены формы облаков: Ci - перистые, Cs - перисто-слоистые, Cc - перисто-кучевые, Ac - высококучевые, As - высокослоистые, Sc - слоисто-кучевые, Ns - слоисто-дождевые, Cu - кучевые, Cb - кучево-дождевые. Подробнее классификацию облаков см. в Атласе облаков (PDF).
T - Температура воздуха - температура, измеренная на высоте 2 м над землей.
Td - Температура точки росы - температура, при понижении до которой содержащийся в воздухе водяной пар достигнет насыщения.
f - Относительная влажность воздуха - влажноcть воздуха, измеренная на высоте 2 м над землей.
Te - Эффективная температура - температура, которую ощущает одетый по сезону человек в тени. Характеристика душности погоды. При расчете учитывается влияние влажности воздуха и скорости ветра на теплоощущения человека.
Tes - Эффективная температура на солнце - температура, которую ощущает человек, с поправкой на солнечный нагрев. Характеристика знойности погоды. Зависит от высоты солнца над горизонтом, облачности и скорости ветра. Ночью, в пасмурную погоду, а также при ветре 12 м/с и более поправка равна нулю.
P - Атмосферное давление - приведенное к уровню моря атмосферное давление.
Po - Атмосферное давление - измеренное на уровне метеостанции атмосферное давление.
Tmin - Минимальная температура - минимум температуры воздуха на высоте 2 м над землей.
Tmax - Максимальная температура - максимум температуры воздуха на высоте 2 м над землей.
R - Количество осадков - Количество выпавших осадков за период времени, мм. При наведении курсора мыши на число - период времени, за который выпало указанное количество осадков.
R24 - Количество осадков - Количество выпавших осадков за 24 часа, мм.
S - Снежный покров - Высота снежного покрова, см. При наведении курсора мыши на число - состояние снежного покрова и степень покрытия местности в баллах.